This is the latest recevied weather packets stored in our database for station/object SQ5AAG-2. If no packets are shown the sender has not sent any weather packets the latest 10 day(s).
| Time | Temp. | Humidity | Pressure | Rain* | Wind** | Luminosity | Snow |
|---|---|---|---|---|---|---|---|
| 1778043979 | 18.89° C | 67% | 991.3 hPa | 0 mm | - | - | - |
| 1778043678 | 18.33° C | 69% | 991.1 hPa | 0 mm | - | - | - |
| 1778043378 | 17.78° C | 71% | 991 hPa | 0 mm | - | - | - |
| 1778043084 | 16.67° C | 73% | 799 hPa | 0 mm | - | - | - |
| 1778043078 | 16.67° C | 73% | 990.7 hPa | 0 mm | - | - | - |
| 1778042777 | 16.11° C | 74% | 990.6 hPa | 0 mm | - | - | - |
| 1778042477 | 15.56° C | 76% | 990.6 hPa | 0 mm | - | - | - |
| 1778042177 | 15° C | 76% | 990.8 hPa | 0 mm | - | - | - |
| 1778041876 | 15° C | 77% | 990.8 hPa | 0 mm | - | - | - |
| 1778041578 | 14.44° C | 78% | 991 hPa | 0 mm | - | - | - |
| 1778041276 | 14.44° C | 81% | 990.8 hPa | 0 mm | - | - | - |
| 1778040675 | 12.78° C | 83% | 991.1 hPa | 0 mm | - | - | - |
| 1778040375 | 12.22° C | 82% | 991.4 hPa | 0 mm | - | - | - |
| 1778040075 | 12.22° C | 82% | 991.4 hPa | 0 mm | - | - | - |
| 1778039774 | 12.22° C | 82% | 991.2 hPa | 0 mm | - | - | - |
| 1778039474 | 12.22° C | 82% | 991.3 hPa | 0 mm | - | - | - |
| 1778039174 | 12.22° C | 82% | 991.3 hPa | 0 mm | - | - | - |
| 1778038874 | 12.22° C | 82% | 991.3 hPa | 0 mm | - | - | - |
| 1778038573 | 11.67° C | 82% | 991.3 hPa | 0 mm | - | - | - |
| 1778038273 | 11.67° C | 83% | 991.3 hPa | 0 mm | - | - | - |
| 1778037973 | 11.67° C | 83% | 991.2 hPa | 0 mm | - | - | - |
| 1778037673 | 11.11° C | 83% | 991.3 hPa | 0 mm | - | - | - |
| 1778037373 | 11.11° C | 83% | 991.4 hPa | 0 mm | - | - | - |
| 1778037072 | 11.11° C | 82% | 991.4 hPa | 0 mm | - | - | - |
| 1778036771 | 11.11° C | 82% | 991.4 hPa | 0 mm | - | - | - |
* Rain latest hour (hover to see other rain measurements)
** Current wind speed in m/s (hover to see current wind gust speed)